Time,TemperatureF,DewpointF,PressureIn,WindDirection,WindDirectionDegrees,WindSpeedMPH,WindSpeedGustMPH,Humidity,HourlyPrecipIn,Conditions,Clouds,dailyrainin,SolarRadiationWatts/m^2,SoftwareType,DateUTC
2013-04-15 00:02:00,61.0,58.0,-100.00,SE,141,2.0,12.0,91,0.00,,,0.01,0.000000,,2013-04-15 10:02:00,
2013-04-15 00:13:00,61.0,58.0,-100.00,SE,141,2.0,12.0,91,0.00,,,0.01,0.000000,,2013-04-15 10:13:00,
2013-04-15 00:23:00,61.0,58.0,-100.00,SE,141,2.0,12.0,91,0.00,,,0.01,0.000000,,2013-04-15 10:23:00,
2013-04-15 00:32:00,61.0,58.0,-100.00,SE,141,2.0,12.0,91,0.00,,,0.01,0.000000,,2013-04-15 10:32:00,
2013-04-15 01:03:00,60.0,59.0,-100.00,SE,139,2.0,10.0,95,0.00,,,0.01,0.000000,,2013-04-15 11:03:00,
2013-04-15 01:12:00,60.0,59.0,-100.00,SE,139,2.0,10.0,95,0.00,,,0.01,0.000000,,2013-04-15 11:12:00,
2013-04-15 01:22:00,60.0,59.0,-100.00,SE,139,2.0,10.0,95,0.00,,,0.01,0.000000,,2013-04-15 11:22:00,
2013-04-15 01:32:00,60.0,59.0,-100.00,SE,139,2.0,10.0,95,0.00,,,0.01,0.000000,,2013-04-15 11:32:00,
2013-04-15 02:13:00,61.0,61.0,-100.00,SE,143,3.0,7.0,99,0.00,,,0.01,0.000000,,2013-04-15 12:13:00,
2013-04-15 02:22:00,61.0,61.0,-100.00,SE,143,3.0,7.0,99,0.00,,,0.01,0.000000,,2013-04-15 12:22:00,
2013-04-15 02:32:00,61.0,61.0,-100.00,SE,143,3.0,7.0,99,0.00,,,0.01,0.000000,,2013-04-15 12:32:00,
2013-04-15 03:03:00,60.0,60.0,-100.00,SE,141,4.0,8.0,99,0.00,,,0.01,0.000000,,2013-04-15 13:03:00,
2013-04-15 03:12:00,60.0,60.0,-100.00,SE,141,4.0,8.0,99,0.00,,,0.01,0.000000,,2013-04-15 13:12:00,
2013-04-15 03:22:00,60.0,60.0,-100.00,SE,141,4.0,8.0,99,0.00,,,0.01,0.000000,,2013-04-15 13:22:00,
2013-04-15 04:12:00,62.0,61.0,-100.00,SE,142,5.0,13.0,98,0.00,,,0.01,0.000000,,2013-04-15 14:12:00,
2013-04-15 04:22:00,62.0,61.0,-100.00,SE,142,5.0,13.0,98,0.00,,,0.01,0.000000,,2013-04-15 14:22:00,
2013-04-15 04:32:00,62.0,61.0,-100.00,SE,142,5.0,13.0,98,0.00,,,0.01,0.000000,,2013-04-15 14:32:00,
2013-04-15 05:03:00,61.0,61.0,-100.00,SE,135,3.0,10.0,99,0.00,,,0.01,0.000000,,2013-04-15 15:03:00,
2013-04-15 05:12:00,61.0,61.0,-100.00,SE,135,3.0,10.0,99,0.00,,,0.01,0.000000,,2013-04-15 15:12:00,
2013-04-15 05:22:00,61.0,61.0,-100.00,SE,135,3.0,10.0,99,0.00,,,0.01,0.000000,,2013-04-15 15:22:00,
2013-04-15 05:34:00,61.0,61.0,-100.00,SE,135,3.0,10.0,99,0.00,,,0.01,0.000000,,2013-04-15 15:34:00,
2013-04-15 06:04:00,60.0,58.0,-100.00,SE,141,4.0,11.0,94,0.00,,,0.01,0.000000,,2013-04-15 16:04:00,
2013-04-15 06:13:00,60.0,58.0,-100.00,SE,141,4.0,11.0,94,0.00,,,0.01,0.000000,,2013-04-15 16:13:00,
2013-04-15 06:23:00,60.0,58.0,-100.00,SE,141,4.0,11.0,94,0.00,,,0.01,0.000000,,2013-04-15 16:23:00,
2013-04-15 06:32:00,60.0,58.0,-100.00,SE,141,4.0,11.0,94,0.00,,,0.01,0.000000,,2013-04-15 16:32:00,
2013-04-15 07:03:00,61.0,58.0,-100.00,SE,137,5.0,11.0,91,0.00,,,0.00,12.000000,,2013-04-15 17:03:00,
2013-04-15 07:14:00,61.0,58.0,-100.00,SE,137,5.0,11.0,91,0.00,,,0.00,12.000000,,2013-04-15 17:14:00,
2013-04-15 07:21:00,61.0,58.0,-100.00,SE,137,5.0,11.0,91,0.00,,,0.00,12.000000,,2013-04-15 17:21:00,
2013-04-15 07:32:00,61.0,58.0,-100.00,SE,137,5.0,11.0,91,0.00,,,0.00,12.000000,,2013-04-15 17:32:00,
2013-04-15 08:03:00,67.0,61.0,-100.00,SE,142,4.0,11.0,80,0.00,,,0.00,178.000000,,2013-04-15 18:03:00,
2013-04-15 08:12:00,67.0,61.0,-100.00,SE,142,4.0,11.0,80,0.00,,,0.00,178.000000,,2013-04-15 18:12:00,
2013-04-15 08:23:00,67.0,61.0,-100.00,SE,142,4.0,11.0,80,0.00,,,0.00,178.000000,,2013-04-15 18:23:00,
2013-04-15 08:32:00,67.0,61.0,-100.00,SE,142,4.0,11.0,80,0.00,,,0.00,178.000000,,2013-04-15 18:32:00,
2013-04-15 09:12:00,72.0,62.0,-100.00,SE,143,4.0,11.0,70,0.00,,,0.00,508.000000,,2013-04-15 19:12:00,
2013-04-15 09:22:00,72.0,62.0,-100.00,SE,143,4.0,11.0,70,0.00,,,0.00,508.000000,,2013-04-15 19:22:00,
2013-04-15 09:33:00,72.0,62.0,-100.00,SE,143,4.0,11.0,70,0.00,,,0.00,508.000000,,2013-04-15 19:33:00,
2013-04-15 10:02:00,75.0,65.0,-100.00,SSE,156,4.0,11.0,70,0.00,,,0.00,769.000000,,2013-04-15 20:02:00,
2013-04-15 10:11:00,75.0,65.0,-100.00,SSE,156,4.0,11.0,70,0.00,,,0.00,769.000000,,2013-04-15 20:11:00,
2013-04-15 10:22:00,75.0,65.0,-100.00,SSE,156,4.0,11.0,70,0.00,,,0.00,769.000000,,2013-04-15 20:22:00,
2013-04-15 10:32:00,75.0,65.0,-100.00,SSE,156,4.0,11.0,70,0.00,,,0.00,769.000000,,2013-04-15 20:32:00,
2013-04-15 11:02:00,73.0,62.0,-100.00,NNW,328,4.0,13.0,69,0.00,,,0.00,1001.000000,,2013-04-15 21:02:00,
2013-04-15 11:12:00,73.0,62.0,-100.00,NNW,328,4.0,13.0,69,0.00,,,0.00,1001.000000,,2013-04-15 21:12:00,
2013-04-15 11:22:00,73.0,62.0,-100.00,NNW,328,4.0,13.0,69,0.00,,,0.00,1001.000000,,2013-04-15 21:22:00,
2013-04-15 11:32:00,73.0,62.0,-100.00,NNW,328,4.0,13.0,69,0.00,,,0.00,1001.000000,,2013-04-15 21:32:00,
2013-04-15 12:02:00,72.0,64.0,-100.00,NW,315,4.0,11.0,76,0.00,,,0.00,645.000000,,2013-04-15 22:02:00,
2013-04-15 12:13:00,72.0,64.0,-100.00,NW,315,4.0,11.0,76,0.00,,,0.00,645.000000,,2013-04-15 22:13:00,
2013-04-15 12:23:00,72.0,64.0,-100.00,NW,315,4.0,11.0,76,0.00,,,0.00,645.000000,,2013-04-15 22:23:00,
2013-04-15 12:32:00,72.0,64.0,-100.00,NW,315,4.0,11.0,76,0.00,,,0.00,645.000000,,2013-04-15 22:32:00,
2013-04-15 13:02:00,75.0,65.0,-100.00,SSE,167,4.0,12.0,72,0.00,,,0.00,657.000000,,2013-04-15 23:02:00,
2013-04-15 13:12:00,75.0,65.0,-100.00,SSE,167,4.0,12.0,72,0.00,,,0.00,657.000000,,2013-04-15 23:12:00,
2013-04-15 13:22:00,75.0,65.0,-100.00,SSE,167,4.0,12.0,72,0.00,,,0.00,657.000000,,2013-04-15 23:22:00,
2013-04-15 13:32:00,75.0,65.0,-100.00,SSE,167,4.0,12.0,72,0.00,,,0.00,657.000000,,2013-04-15 23:32:00,
2013-04-15 14:02:00,73.0,65.0,-100.00,ESE,114,4.0,17.0,76,0.00,,,0.00,718.000000,,2013-04-16 00:02:00,
2013-04-15 14:12:00,73.0,65.0,-100.00,ESE,114,4.0,17.0,76,0.00,,,0.00,718.000000,,2013-04-16 00:12:00,
2013-04-15 14:22:00,73.0,65.0,-100.00,ESE,114,4.0,17.0,76,0.00,,,0.00,718.000000,,2013-04-16 00:22:00,
2013-04-15 14:31:00,73.0,65.0,-100.00,ESE,114,4.0,17.0,76,0.00,,,0.00,718.000000,,2013-04-16 00:31:00,
2013-04-15 15:02:00,77.0,66.0,-100.00,East,96,3.0,12.0,70,0.00,,,0.00,978.000000,,2013-04-16 01:02:00,
2013-04-15 15:12:00,77.0,66.0,-100.00,East,96,3.0,12.0,70,0.00,,,0.00,978.000000,,2013-04-16 01:12:00,
2013-04-15 15:22:00,77.0,66.0,-100.00,East,96,3.0,12.0,70,0.00,,,0.00,978.000000,,2013-04-16 01:22:00,
2013-04-15 15:32:00,77.0,66.0,-100.00,East,96,3.0,12.0,70,0.00,,,0.00,978.000000,,2013-04-16 01:32:00,
2013-04-15 16:02:00,73.0,65.0,-100.00,SW,221,2.0,9.0,77,0.00,,,0.00,698.000000,,2013-04-16 02:02:00,
2013-04-15 16:12:00,73.0,65.0,-100.00,SW,221,2.0,9.0,77,0.00,,,0.00,698.000000,,2013-04-16 02:12:00,
2013-04-15 16:22:00,73.0,65.0,-100.00,SW,221,2.0,9.0,77,0.00,,,0.00,698.000000,,2013-04-16 02:22:00,
2013-04-15 16:32:00,73.0,65.0,-100.00,SW,221,2.0,9.0,77,0.00,,,0.00,698.000000,,2013-04-16 02:32:00,
2013-04-15 17:02:00,69.0,62.0,-100.00,NE,40,2.0,8.0,79,0.00,,,0.00,383.000000,,2013-04-16 03:02:00,
2013-04-15 17:12:00,69.0,62.0,-100.00,NE,40,2.0,8.0,79,0.00,,,0.00,383.000000,,2013-04-16 03:12:00,
2013-04-15 17:22:00,69.0,62.0,-100.00,NE,40,2.0,8.0,79,0.00,,,0.00,383.000000,,2013-04-16 03:22:00,
2013-04-15 17:32:00,69.0,62.0,-100.00,NE,40,2.0,8.0,79,0.00,,,0.00,383.000000,,2013-04-16 03:32:00,
2013-04-15 18:03:00,68.0,64.0,-100.00,NW,305,2.0,6.0,87,0.00,,,0.00,151.000000,,2013-04-16 04:03:00,
2013-04-15 18:12:00,68.0,64.0,-100.00,NW,305,2.0,6.0,87,0.00,,,0.00,151.000000,,2013-04-16 04:12:00,
2013-04-15 18:23:00,68.0,64.0,-100.00,NW,305,2.0,6.0,87,0.00,,,0.00,151.000000,,2013-04-16 04:23:00,
2013-04-15 18:32:00,68.0,64.0,-100.00,NW,305,2.0,6.0,87,0.00,,,0.00,151.000000,,2013-04-16 04:32:00,
2013-04-15 19:02:00,65.0,63.0,-100.00,WNW,294,1.0,4.0,94,0.00,,,0.00,52.000000,,2013-04-16 05:02:00,
2013-04-15 19:12:00,65.0,63.0,-100.00,WNW,294,1.0,4.0,94,0.00,,,0.00,52.000000,,2013-04-16 05:12:00,
2013-04-15 19:22:00,65.0,63.0,-100.00,WNW,294,1.0,4.0,94,0.00,,,0.00,52.000000,,2013-04-16 05:22:00,
2013-04-15 19:32:00,65.0,63.0,-100.00,WNW,294,1.0,4.0,94,0.00,,,0.00,52.000000,,2013-04-16 05:32:00,
2013-04-15 20:02:00,63.0,62.0,-100.00,NNE,15,1.0,5.0,98,0.00,,,0.00,1.000000,,2013-04-16 06:02:00,
2013-04-15 20:12:00,63.0,62.0,-100.00,NNE,15,1.0,5.0,98,0.00,,,0.00,1.000000,,2013-04-16 06:12:00,
2013-04-15 20:22:00,63.0,62.0,-100.00,NNE,15,1.0,5.0,98,0.00,,,0.00,1.000000,,2013-04-16 06:22:00,
2013-04-15 20:32:00,63.0,62.0,-100.00,NNE,15,1.0,5.0,98,0.00,,,0.00,1.000000,,2013-04-16 06:32:00,
2013-04-15 21:02:00,63.0,63.0,-100.00,NE,56,1.0,3.0,100,0.00,,,0.00,0.000000,,2013-04-16 07:02:00,
2013-04-15 21:12:00,63.0,63.0,-100.00,NE,56,1.0,3.0,100,0.00,,,0.00,0.000000,,2013-04-16 07:12:00,
2013-04-15 21:22:00,63.0,63.0,-100.00,NE,56,1.0,3.0,100,0.00,,,0.00,0.000000,,2013-04-16 07:22:00,
2013-04-15 21:32:00,63.0,63.0,-100.00,NE,56,1.0,3.0,100,0.00,,,0.00,0.000000,,2013-04-16 07:32:00,
2013-04-15 22:02:00,63.0,63.0,-100.00,ESE,113,1.0,3.0,100,0.00,,,0.00,0.000000,,2013-04-16 08:02:00,
2013-04-15 22:12:00,63.0,63.0,-100.00,ESE,113,1.0,3.0,100,0.00,,,0.00,0.000000,,2013-04-16 08:12:00,
2013-04-15 22:22:00,63.0,63.0,-100.00,ESE,113,1.0,3.0,100,0.00,,,0.00,0.000000,,2013-04-16 08:22:00,
2013-04-15 22:32:00,63.0,63.0,-100.00,ESE,113,1.0,3.0,100,0.00,,,0.00,0.000000,,2013-04-16 08:32:00,
2013-04-15 23:02:00,61.0,61.0,-100.00,East,94,3.0,6.0,100,0.00,,,0.00,0.000000,,2013-04-16 09:02:00,
2013-04-15 23:12:00,61.0,61.0,-100.00,East,94,3.0,6.0,100,0.00,,,0.00,0.000000,,2013-04-16 09:12:00,
2013-04-15 23:22:00,61.0,61.0,-100.00,East,94,3.0,6.0,100,0.00,,,0.00,0.000000,,2013-04-16 09:22:00,
2013-04-15 23:32:00,61.0,61.0,-100.00,East,94,3.0,6.0,100,0.00,,,0.00,0.000000,,2013-04-16 09:32:00,